Location: Chomutov
(50.4500°N, 13.4333°E)
Time: 15:43:50
(UTC+02:00)

ISS - Visible Passes

Search period start: 25 September 2022 00:00
Search period end: 05 October 2022 00:00
Orbit: 414 x 417 km, 51.6° (Epoch: 25 September)

Date Brightness Start Highest point End Pass type
(mag) Time Alt. Az. Time Alt. Az. Time Alt. Az.
25 Sep -3.7 20:33:58 10° W 20:37:21 74° N 20:38:20 42° E visible
25 Sep -0.6 22:10:46 10° W 22:11:13 13° W 22:11:13 13° W visible
26 Sep -3.6 19:45:18 10° W 19:48:39 70° N 19:51:30 14° E visible
26 Sep -2.4 21:22:05 10° WNW 21:24:22 38° W 21:24:22 38° W visible
27 Sep -3.8 20:33:24 10° WNW 20:36:47 82° SSW 20:37:32 51° ESE visible
28 Sep -3.8 19:44:42 10° WNW 19:48:05 83° NNE 19:50:42 16° E visible
28 Sep -1.9 21:21:34 10° W 21:23:35 27° WSW 21:23:35 27° WSW visible
29 Sep -3.2 20:32:46 10° W 20:36:02 48° SSW 20:36:46 39° SSE visible
30 Sep -3.5 19:44:02 10° WNW 19:47:22 66° SSW 19:50:00 15° ESE visible
30 Sep -1.2 21:21:22 10° W 21:22:53 16° WSW 21:22:53 16° WSW visible
01 Oct -2.0 20:32:17 10° W 20:35:06 25° SW 20:36:10 21° S visible
02 Oct -2.5 19:43:21 10° W 19:46:28 36° SSW 19:49:30 10° SE visible
03 Oct -1.0 20:32:28 10° WSW 20:33:55 12° SW 20:35:20 10° SSW visible
04 Oct -1.3 19:42:56 10° W 19:45:20 18° SW 19:47:45 10° S visible
